FW0639 Weather Reports


time (UTC)temp
C
wind
direction
speed
KPH
gust
KPH
rain 1hr
cm
rain 24hr
cm
rain mn
cm
humidity
%
barometer
mb
20260905171013 16 332 0.0 6.4 0.00 0.00 0.00 57 1015.2
20260905165950 16 332 0.0 1.6 0.00 0.00 0.00 59 1015.4
20260905164954 15 332 0.0 3.2 0.00 0.00 0.00 61 1015.3
20260905161625 14 332 0.0 6.4 0.00 0.00 0.00 64 1015.4
20260905160557 13 332 0.0 4.8 0.00 0.00 0.00 68 1015.2
20260905155534 13 332 0.0 0.0 0.00 0.00 0.00 69 1015.2
20260905153426 11 332 0.0 0.0 0.00 0.00 0.00 73 1015.2
20260905152357 11 332 0.0 0.0 0.00 0.00 0.00 76 1015.2
20260905151405 11 332 0.0 0.0 0.00 0.00 0.00 77 1015.2
20260905150348 10 332 0.0 0.0 0.00 0.00 0.00 77 1015.3
20260905145316 10 332 0.0 0.0 0.00 0.00 0.00 77 1015.2
20260905144320 9 332 0.0 0.0 0.00 0.00 0.00 80 1015.1
20260905143248 8 335 0.0 0.0 0.00 0.00 0.00 82 1015.1
20260905142216 8 335 0.0 0.0 0.00 0.00 0.00 83 1015.0
20260905141224 7 356 0.0 0.0 0.00 0.00 0.00 82 1014.8
20260905140157 7 356 0.0 0.0 0.00 0.00 0.00 82 1014.6
20260905135211 7 356 0.0 0.0 0.00 0.00 0.00 82 1014.6
20260905134137 7 356 0.0 0.0 0.00 0.00 0.00 82 1014.2
20260905133125 7 356 0.0 0.0 0.00 0.00 0.00 81 1014.1
20260905132102 7 356 0.0 0.0 0.00 0.00 0.00 80 1014.1
20260905131047 7 356 0.0 0.0 0.00 0.00 0.00 80 1013.9
20260905130033 7 356 0.0 0.0 0.00 0.00 0.00 80 1013.5
20260905125008 7 340 0.0 0.0 0.00 0.00 0.00 79 1013.2
20260905124022 7 340 0.0 0.0 0.00 0.00 0.00 78 1013.2
20260905122959 8 339 0.0 0.0 0.00 0.00 0.00 77 1013.0
20260905121959 8 340 0.0 0.0 0.00 0.00 0.00 76 1012.9
20260905121004 8 339 0.0 0.0 0.00 0.00 0.00 76 1013.0
20260905115940 8 339 0.0 0.0 0.00 0.00 0.00 75 1013.2
20260905114957 8 338 0.0 0.0 0.00 0.00 0.00 75 1013.4
20260905114000 8 338 0.0 0.0 0.00 0.00 0.00 73 1013.5
20260905113013 9 337 0.0 0.0 0.00 0.00 0.00 73 1013.3
20260905112012 9 337 0.0 0.0 0.00 0.00 0.00 72 1013.0
20260905105853 10 337 0.0 0.0 0.00 0.00 0.00 70 1012.4
20260905102550 10 336 0.0 0.0 0.00 0.00 0.00 66 1011.5
20260905100427 11 334 0.0 0.0 0.00 0.00 0.00 63 1011.2
20260905094211 12 334 0.0 0.0 0.00 0.00 0.00 59 1010.9
20260905093148 12 333 0.0 0.0 0.00 0.00 0.00 58 1011.0
20260905092155 13 333 0.0 0.0 0.00 0.00 0.00 57 1011.1
20260905091202 13 333 0.0 3.2 0.00 0.00 0.00 57 1011.2
20260905090155 13 332 0.0 0.0 0.00 0.00 0.00 56 1011.1
20260905085137 13 332 0.0 0.0 0.00 0.00 0.00 57 1011.1
20260905084110 13 332 0.0 4.8 0.00 0.00 0.00 56 1011.4
20260905083123 13 332 0.0 0.0 0.00 0.00 0.00 56 1011.1
20260905082127 13 332 0.0 0.0 0.00 0.00 0.00 56 1011.0
20260905081119 14 332 0.0 0.0 0.00 0.00 0.00 56 1010.8
20260905080106 14 332 0.0 0.0 0.00 0.00 0.00 56 1011.4
20260905075111 13 332 1.6 11.3 0.00 0.00 0.00 55 1011.7
20260905074118 13 332 0.0 3.2 0.00 0.00 0.00 56 1011.5
20260905073051 13 332 0.0 0.0 0.00 0.00 0.00 56 1011.2
20260905072046 13 332 0.0 0.0 0.00 0.00 0.00 56 1011.0
20260905071058 13 332 0.0 4.8 0.00 0.00 0.00 56 1011.2
20260905070049 13 332 0.0 3.2 0.00 0.00 0.00 57 1011.0
20260905065034 13 332 0.0 0.0 0.00 0.00 0.00 60 1010.8
20260905064018 13 332 0.0 0.0 0.00 0.00 0.00 57 1011.0
20260905063006 13 332 0.0 0.0 0.00 0.00 0.00 58 1010.3
20260905061952 14 332 0.0 0.0 0.00 0.00 0.00 55 1010.8
20260905060935 14 332 0.0 0.0 0.00 0.00 0.00 55 1010.5
20260905055936 14 332 0.0 1.6 0.00 0.00 0.00 55 1010.0
20260905055000 13 332 0.0 4.8 0.00 0.00 0.00 56 1010.5
20260905053933 13 332 0.0 0.0 0.00 0.00 0.00 59 1009.8
20260905052859 13 332 0.0 0.0 0.00 0.00 0.00 59 1009.7
20260905051913 13 332 0.0 3.2 0.00 0.00 0.00 59 1009.6
20260905050924 13 332 0.0 0.0 0.00 0.00 0.00 60 1009.3
20260905045907 14 332 0.0 0.0 0.00 0.00 0.00 58 1009.6
20260905043759 15 332 0.0 3.2 0.00 0.00 0.00 56 1009.4
20260905042756 15 332 0.0 0.0 0.00 0.00 0.00 55 1008.9
20260905041745 16 332 0.0 1.6 0.00 0.00 0.00 51 1008.9
20260905040712 16 332 0.0 0.0 0.00 0.00 0.00 50 1009.0
20260905035735 17 332 0.0 0.0 0.00 0.00 0.00 50 1008.9
20260905034723 17 332 0.0 0.0 0.00 0.00 0.00 46 1008.7
20260905033712 18 332 0.0 0.0 0.00 0.00 0.00 45 1008.4
20260905032707 18 332 0.0 1.6 0.00 0.00 0.00 44 1008.1
20260905031646 18 332 0.0 3.2 0.00 0.00 0.00 44 1008.0
20260905030637 18 332 0.0 0.0 0.00 0.00 0.00 43 1008.0
20260905025648 18 332 0.0 0.0 0.00 0.00 0.00 43 1008.0
20260905024712 18 332 0.0 0.0 0.00 0.00 0.00 44 1007.8
20260905023646 19 332 0.0 0.0 0.00 0.00 0.00 43 1007.8
20260905021505 20 332 0.0 0.0 0.00 0.00 0.00 42 1007.3
20260905020509 20 332 0.0 1.6 0.00 0.00 0.00 40 1007.2
20260905015512 20 332 0.0 0.0 0.00 0.00 0.00 40 1007.0
20260905013307 21 332 0.0 0.0 0.00 0.00 0.00 38 1006.4
20260905012236 22 332 0.0 3.2 0.00 0.00 0.00 36 1006.3
20260905011248 22 332 0.0 6.4 0.00 0.00 0.00 35 1006.1
20260905005119 23 332 1.6 11.3 0.00 0.00 0.00 32 1005.7
20260905004110 23 340 1.6 9.7 0.00 0.00 0.00 34 1005.5
20260905003112 23 340 1.6 6.4 0.00 0.00 0.00 35 1005.6
20260905000939 23 342 1.6 14.5 0.00 0.00 0.00 33 1005.4
20260904235921 23 345 1.6 14.5 0.00 0.00 0.00 35 1005.2
20260904234945 24 342 1.6 11.3 0.00 0.00 0.00 35 1005.1
20260904233948 24 347 1.6 11.3 0.00 0.00 0.00 33 1005.0
20260904232922 25 3 1.6 8.0 0.00 0.00 0.00 32 1004.9
20260904230843 25 280 1.6 11.3 0.00 0.00 0.00 33 1004.7
20260904225809 26 49 3.2 16.1 0.00 0.00 0.00 31 1004.7
20260904224746 26 128 3.2 16.1 0.00 0.00 0.00 32 1004.5
20260904223801 26 272 1.6 12.9 0.00 0.00 0.00 33 1004.5
20260904220558 26 148 1.6 14.5 0.00 0.00 0.00 32 1004.1
20260904215621 26 336 3.2 9.7 0.00 0.00 0.00 30 1004.0
20260904214620 26 328 1.6 12.9 0.00 0.00 0.00 28 1003.8
20260904213614 26 359 3.2 12.9 0.00 0.00 0.00 31 1003.7
20260904212541 26 328 1.6 14.5 0.00 0.00 0.00 30 1003.7
20260904211527 26 195 1.6 14.5 0.00 0.00 0.00 30 1003.6
20260904210546 27 178 3.2 12.9 0.00 0.00 0.00 29 1003.5
20260904205543 27 344 1.6 12.9 0.00 0.00 0.00 30 1003.4
20260904204602 27 340 1.6 12.9 0.00 0.00 0.00 30 1003.3
20260904203548 27 289 1.6 6.4 0.00 0.00 0.00 31 1003.2
20260904202544 27 288 1.6 9.7 0.00 0.00 0.00 29 1003.3
20260904201513 27 279 1.6 9.7 0.00 0.00 0.00 29 1003.4
20260904195313 28 328 1.6 6.4 0.00 0.00 0.00 27 1003.2
20260904194311 27 342 0.0 4.8 0.00 0.00 0.00 29 1003.2
20260904191016 27 161 1.6 11.3 0.00 0.00 0.00 30 1003.3
20260904184917 27 143 3.2 17.7 0.00 0.00 0.00 28 1003.1
20260904183910 28 9 3.2 32.2 0.00 0.00 0.00 26 1003.0
20260904182842 29 124 8.0 32.2 0.00 0.00 0.00 20 1002.9
20260904181902 30 161 8.0 27.4 0.00 0.00 0.00 20 1002.7
20260904180841 30 213 8.0 20.9 0.00 0.00 0.00 20 1002.7
20260904175843 30 173 8.0 20.9 0.00 0.00 0.00 18 1002.7
20260904174828 30 129 6.4 19.3 0.00 0.00 0.00 19 1002.5
20260904173842 30 140 9.7 24.1 0.00 0.00 0.00 17 1002.4
20260904172838 29 123 6.4 24.1 0.00 0.00 0.00 19 1002.2
20260904171857 28 78 1.6 14.5 0.00 0.00 0.00 23 1002.1